E23XBQ-1 Weather Reports


Display with metric or nautical units.
time (UTC)temp
F
wind
direction
speed
MPH
gust
MPH
rain 1hr
in
rain 24hr
in
rain mn
in
humidity
%
barometer
mb
20260503203301 71 0 0.0 0.0 0.00 0.00 0.00 87 714.0
20260503202234 71 0 0.0 0.0 0.00 0.00 0.00 87 714.0
20260503201209 71 0 0.0 0.0 0.00 0.00 0.00 87 714.0
20260503200144 71 0 0.0 0.0 0.00 0.00 0.00 87 714.0
20260503195120 71 0 0.0 0.0 0.00 0.00 0.00 87 714.0
20260503194053 71 0 0.0 0.0 0.00 0.00 0.00 87 714.0
20260503193027 71 0 0.0 0.0 0.00 0.00 0.00 87 714.0
20260503192001 71 0 0.0 0.0 0.00 0.00 0.00 87 714.0
20260503190936 71 0 0.0 0.0 0.00 0.00 0.00 87 714.0
20260503185910 71 0 0.0 0.0 0.00 0.00 0.00 87 714.0
20260503184844 71 0 0.0 0.0 0.00 0.00 0.00 87 714.0
20260503183818 71 0 0.0 0.0 0.00 0.00 0.00 87 714.0
20260503182753 71 0 0.0 0.0 0.00 0.00 0.00 87 714.0
20260503181728 71 0 0.0 0.0 0.00 0.00 0.00 87 714.0
20260503180702 71 0 0.0 0.0 0.00 0.00 0.00 87 714.0
20260503175635 71 0 0.0 0.0 0.00 0.00 0.00 87 714.0
20260503174608 71 0 0.0 0.0 0.00 0.00 0.00 87 714.0
20260503173541 71 0 0.0 0.0 0.00 0.00 0.00 87 714.0
20260503172515 71 0 0.0 0.0 0.00 0.00 0.00 87 714.0
20260503171448 71 0 0.0 0.0 0.00 0.00 0.00 87 714.0
20260503170420 71 0 0.0 0.0 0.00 0.00 0.00 87 714.0
20260503160147 71 0 0.0 0.0 0.00 0.00 0.00 87 714.0
20260503150944 71 0 0.0 0.0 0.00 0.00 0.00 87 714.0
20260503150941 71 0 0.0 0.0 0.00 0.00 0.00 87 714.0
20260503130427 71 0 0.0 0.0 0.00 0.00 0.00 87 714.0
20260503120154 71 0 0.0 0.0 0.00 0.00 0.00 87 714.0
20260503090445 99 0 0.0 0.0 0.00 0.00 0.00 38 967.0
20260503081241 97 0 0.0 0.0 0.00 0.00 0.00 39 968.0
20260503080216 96 0 0.0 0.0 0.00 0.00 0.00 41 968.0
20260503072037 99 0 0.0 0.0 0.00 0.00 0.00 37 969.0
20260503071013 101 0 0.0 0.0 0.00 0.00 0.00 31 969.0
20260503054654 98 0 0.0 0.0 0.00 0.00 0.00 36 971.0
20260503053629 97 0 0.0 0.0 0.00 0.00 0.00 39 971.0
20260503052634 94 0 0.0 0.0 0.00 0.00 0.00 40 971.0
20260503052603 94 0 0.0 0.0 0.00 0.00 0.00 40 971.0
20260503052036 95 0 0.0 0.0 0.00 0.00 0.00 40 971.0
20260503051010 95 0 0.0 0.0 0.00 0.00 0.00 41 972.0
20260503050620 94 0 0.0 0.0 0.00 0.00 0.00 39 972.0
20260503050618 94 0 0.0 0.0 0.00 0.00 0.00 39 972.0
20260503050510 95 0 0.0 0.0 0.00 0.00 0.00 39 972.0
20260503045446 96 0 0.0 0.0 0.00 0.00 0.00 39 972.0
20260503045444 96 0 0.0 0.0 0.00 0.00 0.00 39 972.0
20260503044421 96 0 0.0 0.0 0.00 0.00 0.00 38 972.0
20260503043354 96 0 0.0 0.0 0.00 0.00 0.00 40 972.0
20260503042330 96 0 0.0 0.0 0.00 0.00 0.00 39 972.0
20260503041305 94 0 0.0 0.0 0.00 0.00 0.00 43 973.0
20260503040241 96 0 0.0 0.0 0.00 0.00 0.00 40 973.0
20260503035216 96 0 0.0 0.0 0.00 0.00 0.00 41 973.0
20260503034152 95 0 0.0 0.0 0.00 0.00 0.00 39 973.0
20260503033128 96 0 0.0 0.0 0.00 0.00 0.00 42 973.0
20260503032103 95 0 0.0 0.0 0.00 0.00 0.00 42 973.0
20260503031038 94 0 0.0 0.0 0.00 0.00 0.00 44 973.0
20260503030015 93 0 0.0 0.0 0.00 0.00 0.00 47 973.0
20260503030013 93 0 0.0 0.0 0.00 0.00 0.00 47 973.0
20260503024949 92 0 0.0 0.0 0.00 0.00 0.00 52 973.0
20260503023924 91 0 0.0 0.0 0.00 0.00 0.00 49 974.0
20260503022900 89 0 0.0 0.0 0.00 0.00 0.00 59 974.0
20260503021835 85 0 0.0 0.0 0.00 0.00 0.00 73 974.0
20260503020810 85 0 0.0 0.0 0.00 0.00 0.00 74 974.0
20260503015745 84 0 0.0 0.0 0.00 0.00 0.00 73 973.0
20260503014719 84 0 0.0 0.0 0.00 0.00 0.00 72 973.0
20260503013652 83 0 0.0 0.0 0.00 0.00 0.00 77 973.0
20260503012627 82 0 0.0 0.0 0.00 0.00 0.00 80 973.0
20260503011608 82 0 0.0 0.0 0.00 0.00 0.00 83 973.0
20260503011601 82 0 0.0 0.0 0.00 0.00 0.00 83 973.0
20260503010537 82 0 0.0 0.0 0.00 0.00 0.00 83 973.0
20260503005512 81 0 0.0 0.0 0.00 0.00 0.00 83 973.0
20260503004448 81 0 0.0 0.0 0.00 0.00 0.00 86 973.0
20260503003421 80 0 0.0 0.0 0.00 0.00 0.00 91 973.0
20260503002357 78 0 0.0 0.0 0.00 0.00 0.00 98 973.0
20260503001328 78 0 0.0 0.0 0.00 0.00 0.00 99 972.0
20260503000301 78 0 0.0 0.0 0.00 0.00 0.00 99 972.0
20260502235239 77 0 0.0 0.0 0.00 0.00 0.00 99 972.0
20260502235235 77 0 0.0 0.0 0.00 0.00 0.00 99 972.0
20260502234208 78 0 0.0 0.0 0.00 0.00 0.00 99 972.0
20260502233143 78 0 0.0 0.0 0.00 0.00 0.00 93 971.0
20260502232118 77 0 0.0 0.0 0.00 0.00 0.00 92 971.0
20260502231054 76 0 0.0 0.0 0.00 0.00 0.00 90 971.0
20260502230030 75 0 0.0 0.0 0.00 0.00 0.00 92 971.0
20260502225005 76 0 0.0 0.0 0.00 0.00 0.00 96 971.0
20260502223940 76 0 0.0 0.0 0.00 0.00 0.00 97 971.0
20260502222915 76 0 0.0 0.0 0.00 0.00 0.00 99 971.0
20260502221850 77 0 0.0 0.0 0.00 0.00 0.00 99 971.0
20260502220826 76 0 0.0 0.0 0.00 0.00 0.00 96 971.0
20260502215800 76 0 0.0 0.0 0.00 0.00 0.00 97 971.0
20260502214726 77 0 0.0 0.0 0.00 0.00 0.00 99 971.0
20260502213654 77 0 0.0 0.0 0.00 0.00 0.00 99 971.0
20260502212628 77 0 0.0 0.0 0.00 0.00 0.00 99 970.0
20260502211625 77 0 0.0 0.0 0.00 0.00 0.00 99 970.0
20260502211604 77 0 0.0 0.0 0.00 0.00 0.00 99 970.0
20260502210540 77 0 0.0 0.0 0.00 0.00 0.00 98 970.0
20260502205515 77 0 0.0 0.0 0.00 0.00 0.00 93 970.0
20260502204450 77 0 0.0 0.0 0.00 0.00 0.00 89 970.0